Simultaneous Nadir Overpasses (SNOs) Predictions

Prediction of SNOs between METOP-B and TERRA Satellite Orbit:

Table of predicted SNOs for the next 14.0 days since TLE Epoch: 5/12/2018
Index Date (METOP-B) Time (METOP-B) Lat,Lon (METOP-B) SZA (METOP-B ) Date (TERRA) Time (TERRA) Lat,Lon (TERRA) SZA (TERRA ) Distance(km) Time Diff (sec)
1 05/13/2018 08:26:17 -81.35, -78.55 113.98 05/13/2018 08:27:01 -81.36, -78.41 113.94 2.61 44
2 05/13/2018 09:16:57 81.35, 88.91 66.03 05/13/2018 09:16:28 81.34, 89.02 66.02 1.82 29
3 05/16/2018 04:00:37 -81.35, -12.23 114.66 05/16/2018 04:01:18 -81.34, -12.27 114.65 0.90 41
4 05/16/2018 04:51:16 81.35, 155.60 65.40 05/16/2018 04:50:44 81.35, 155.51 65.37 1.45 32
5 05/18/2018 23:34:58 -81.34, 54.07 115.30 05/18/2018 23:35:35 -81.34, 54.22 115.27 2.51 37
6 05/19/2018 00:25:37 81.35,-138.13 64.75 05/19/2018 00:25:01 81.35,-138.02 64.75 1.87 36
7 05/21/2018 19:09:18 -81.35, 120.75 115.86 05/21/2018 19:09:52 -81.35, 120.69 115.85 0.94 34
8 05/21/2018 19:59:57 81.35, -71.48 64.20 05/21/2018 19:59:18 81.35, -71.57 64.16 1.60 39
9 05/24/2018 14:43:38 -81.35,-172.99 116.42 05/24/2018 14:44:08 -81.35,-172.86 116.39 2.14 30




NCC Satellite Simultaneous Nadir Overpasses (SNOs) Prediction Service
